Regional Weather Roundup
Issued by NWS Sterling, VA

Home | Current Version | Previous Version | Graphics & Text | Print | Product List | Glossary On
Versions: 1 2 3 4 5 6 7 8 9 10 11 12 13 14 15 16 17 18 19 20 21 22 23 24 25 26 27 28 29 30 31 32 33 34 35 36 37 38 39 40 41 42 43 44 45 46 47 48 49
000
ASUS41 KLWX 310910
RWRLWX

REGIONAL WEATHER ROUNDUP
NATIONAL WEATHER SERVICE BALTIMORE MD/WASHINGTON DC
500 AM EDT FRI JUL 31 2015

Note: "FAIR" indicates few or no clouds below 12,000 feet
with no significant weather and/or obstructions to visibility.
 TC=TEMPERATURE CELSIUS

 * =Non NWS site. Station does not report precipitation (e.g. rain,
    snow, etc.), thunder, or fog.

DCZ001-MDZ009-015-VAZ040>042-051-053>054-311000-
WASHINGTON METRO

CITY           SKY/WX    TMP DP  RH WIND       PRES   REMARKS
WASHINGTON NAT CLEAR     76  62  62 NW8       29.92S
DULLES         CLEAR     66  61  84 CALM      29.94S
ANDREWS AFB    CLEAR     72  62  72 NW6       29.91S
FT BELVOIR     CLEAR     66  65  96 W1        29.92S
COLLEGE PARK*  CLEAR     68  66  94 CALM      29.91S
LEESBURG*      CLEAR     72  63  73 NW8       29.95S
MANASSAS*      CLEAR     64  63  94 CALM      29.94R
GAITHERSBURG*  CLEAR     64  61  88 CALM      29.98R

$$

MDZ006>007-011-014-311000-
BALTIMORE METRO

CITY           SKY/WX    TMP DP  RH WIND       PRES   REMARKS
BWI AIRPORT    CLEAR     68  63  84 W3        29.91R
MD SCIENCE CTR   N/A     76  59  55 MISG      29.91S
MARTIN STATE   CLEAR     70  64  83 NW5       29.92S
ANNAPOLIS      CLEAR     75  66  73 NW5       29.90R
FORT MEADE*    CLEAR     64  63  94 CALM      29.94S

$$

MDZ012-015-019>023-311000-
MARYLAND EASTERN SHORE

CITY           SKY/WX    TMP DP  RH WIND       PRES   REMARKS
OCEAN CITY     MOCLDY    75  73  93 NW6       29.87F FOG
SALISBURY      PTCLDY    74  73  97 N5        29.88F
BAY BRIDGE AP*   N/A     75  64  69 N3        29.90S
CAMBRIDGE*     CLEAR     72  70  94 CALM      29.89S
EASTON*        CLEAR     73  73 100 N5        29.93S

$$

MDZ017>025-311000-
SOUTHERN MARYLAND

CITY           SKY/WX    TMP DP  RH WIND       PRES   REMARKS
PATUXENT RIVER CLEAR     74  68  81 NW9       29.89S
ST INIGOES     CLEAR     75  69  81 VRB5      29.89R
LEONARDTOWN*   CLEAR     70  64  83 CALM      29.92R

$$

MDZ003>005-311000-
NORTH CENTRAL MARYLAND

CITY           SKY/WX    TMP DP  RH WIND       PRES   REMARKS
FREDERICK*     CLEAR     63  63 100 CALM      29.96S
HAGERSTOWN APT PTCLDY    70  57  63 S3        29.95R
WESTMINSTER*   NOT AVBL

$$

MDZ501>502-311000-
WESTERN MARYLAND

CITY           SKY/WX    TMP DP  RH WIND       PRES   REMARKS
OAKLAND*       CLEAR     61 N/A N/A W7        30.06S
CUMBERLAND*    CLEAR     61  61 100 CALM      30.02S

$$

VAZ025>031-311000-
SHENANDOAH VALLEY

CITY           SKY/WX    TMP DP  RH WIND       PRES   REMARKS
WINCHESTER*    CLEAR     70  59  68 W8        29.96S
FRONT ROYAL*   FAIR      63  59  88 S5        29.96S
LURAY*         FAIR      63  63 100 CALM      29.99R
NEW MARKET*    FAIR      60  59  98 CALM      29.99R
STAUNTON*      CLEAR     59  57  92 CALM      30.03S FOG
WAYNESBORO*    FAIR      60  59  96 CALM      30.02R

$$

WVZ021-048>050-054>055-311000-
EASTERN WEST VIRGINIA PANHANDLE

CITY           SKY/WX    TMP DP  RH WIND       PRES   REMARKS
MARTINSBURG    PTCLDY    66  58  75 SW5       29.96R
PETERSBURG*    PTCLDY    59  58  96 CALM      30.02R

$$

VAZ036>039-050-311000-
CENTRAL FOOTHILLS

CITY           SKY/WX    TMP DP  RH WIND       PRES   REMARKS
CHARLOTTESVILL CLEAR     65  62  90 CALM      29.96R
CULPEPER*      CLEAR     64  63  96 CALM      29.95S
ORANGE*        CLEAR     64  64 100 CALM      29.96S
GORDONSVILLE*  FAIR      63  63 100 CALM      29.94S
WARRENTON*     FAIR      63  63 100 CALM      29.93S

$$

VAZ055>057-311000-
NORTH AND CENTRAL PIEDMONT

CITY           SKY/WX    TMP DP  RH WIND       PRES   REMARKS
FREDERICKSBRG* CLEAR     70  70 100 CALM      29.91S
STAFFORD*      CLEAR     65  61  85 NW7       29.97R

$$

NCZ024-NYZ072-PAZ021-071-VAZ022-071-311000-
OTHER REGIONAL OBSERVATIONS

CITY           SKY/WX    TMP DP  RH WIND       PRES   REMARKS
NEW YORK CITY  MOCLDY    75  62  64 NW3       29.88R
PHILADELPHIA   CLEAR     73  61  65 CALM      29.88S
PITTSBURGH     CLEAR     66  57  72 CALM      29.98F
ROANOKE        CLEAR     66  58  75 W7        30.03R
RICHMOND       MOCLDY    76  71  85 N6        29.91R
RALEIGH        PTCLDY    76  64  66 CALM      29.93R

$$

ANZ530>537-311000-
MARINE OBSERVATIONS

STATION/POSITION TIME  TEMP    WIND        PRES
                       AIR SEA DIR/SP/G
                 (UTC) (F)     (DEG/KT/KT) (MB)
THOMAS PT LIGHT  NOT AVBL
BALT KEY BRIDGE  0800   78     300/  9/ 11 1012.3R
COVE POINT       0800   78     330/  5/ 10 1012.9S
LEWISETTA        0800   77 83  300/  3/  4 1011.8F
SOLOMONS ISLAND  0800      82                N/A
PINEY POINT      0800           10/ 10/ 12   N/A

$$




USA.gov is the U.S. government's official web portal to all federal, state and local government web resources and services.